FW9002 Weather Reports


time (UTC)temp
F
wind
direction
speed
knots
gust
knots
rain 1hr
in
rain 24hr
in
rain mn
in
humidity
%
barometer
mb
20260905072101 80 95 0.9 0.9 0.00 0.00 0.00 56 1014.1
20260905071557 80 95 0.0 0.0 0.00 0.00 0.00 56 1014.4
20260905071057 81 95 0.0 0.0 0.00 0.00 0.00 56 1014.3
20260905070553 81 95 0.0 0.0 0.00 0.00 0.00 55 1014.3
20260905070048 81 95 0.0 0.0 0.00 0.00 0.00 55 1014.1
20260905065546 81 94 0.0 0.0 0.00 0.00 0.00 55 1014.1
20260905065042 82 94 0.0 0.0 0.00 0.00 0.00 54 1014.1
20260905064542 82 101 0.9 0.9 0.00 0.00 0.00 53 1014.3
20260905064037 82 101 0.0 0.0 0.00 0.00 0.00 53 1014.2
20260905063536 82 89 0.9 0.9 0.00 0.00 0.00 53 1014.1
20260905063032 82 101 0.0 0.0 0.00 0.00 0.00 53 1013.8
20260905062532 82 101 0.9 0.9 0.00 0.00 0.00 53 1014.1
20260905062027 82 61 0.9 0.9 0.00 0.00 0.00 53 1014.0
20260905061522 83 116 0.0 0.0 0.00 0.00 0.00 52 1014.0
20260905061021 83 187 1.7 1.7 0.00 0.00 0.00 51 1013.9
20260905060517 83 182 1.7 1.7 0.00 0.00 0.00 51 1014.0
20260905060013 84 183 0.0 0.0 0.00 0.00 0.00 51 1014.0
20260905055511 84 157 0.9 0.9 0.00 0.00 0.00 51 1014.1
20260905055006 84 170 1.7 1.7 0.00 0.00 0.00 51 1014.0
20260905054502 84 152 0.9 0.9 0.00 0.00 0.00 51 1013.8
20260905053957 84 134 0.9 0.9 0.00 0.00 0.00 51 1014.0
20260905053451 84 148 0.9 0.9 0.00 0.00 0.00 51 1013.8
20260905052948 84 150 0.0 0.0 0.00 0.00 0.00 51 1013.9
20260905052447 84 138 0.9 0.9 0.00 0.00 0.00 51 1013.6
20260905051946 84 145 0.0 0.0 0.00 0.00 0.00 51 1013.8
20260905051441 84 129 0.0 0.0 0.00 0.00 0.00 51 1013.6
20260905050939 84 127 0.0 0.0 0.00 0.00 0.00 51 1013.8
20260905050435 84 126 0.9 0.9 0.00 0.00 0.00 51 1013.8
20260905045930 84 114 0.9 0.9 0.00 0.00 0.00 50 1013.5
20260905045425 84 115 0.0 0.0 0.00 0.00 0.00 49 1013.4
20260905044921 84 115 0.0 0.0 0.00 0.00 0.00 48 1013.3
20260905044410 84 121 0.0 0.0 0.00 0.00 0.00 47 1013.3
20260905043909 84 121 0.0 0.0 0.00 0.00 0.00 46 1013.5
20260905043404 85 121 0.0 0.0 0.00 0.00 0.00 45 1013.2
20260905042903 85 234 0.9 0.9 0.00 0.00 0.00 44 1013.4
20260905042358 85 234 0.0 0.0 0.00 0.00 0.00 44 1013.5
20260905041853 85 234 0.0 0.0 0.00 0.00 0.00 44 1013.3
20260905041349 86 235 0.0 0.0 0.00 0.00 0.00 43 1013.5
20260905040844 86 234 0.0 0.0 0.00 0.00 0.00 43 1013.4
20260905040343 87 230 0.0 0.0 0.00 0.00 0.00 41 1013.4
20260905035842 87 230 0.0 0.0 0.00 0.00 0.00 40 1013.3
20260905035338 87 229 0.0 0.0 0.00 0.00 0.00 40 1013.2
20260905034834 87 229 0.0 0.0 0.00 0.00 0.00 40 1013.4
20260905034330 87 272 0.0 0.0 0.00 0.00 0.00 40 1013.2
20260905033828 87 273 0.0 0.0 0.00 0.00 0.00 39 1013.2
20260905033324 87 313 0.0 0.0 0.00 0.00 0.00 39 1013.3
20260905032823 87 256 1.7 1.7 0.00 0.00 0.00 40 1012.9
20260905032319 86 311 0.0 0.0 0.00 0.00 0.00 39 1013.0
20260905031814 86 316 0.0 0.0 0.00 0.00 0.00 39 1013.0
20260905031310 86 316 0.0 0.0 0.00 0.00 0.00 39 1012.9
20260905030805 87 316 0.0 0.0 0.00 0.00 0.00 37 1012.9
20260905030300 87 316 0.0 0.0 0.00 0.00 0.00 37 1012.7
20260905025759 88 316 0.0 0.0 0.00 0.00 0.00 36 1012.5
20260905025255 88 316 0.0 0.0 0.00 0.00 0.00 36 1012.7
20260905024751 89 316 0.0 0.0 0.00 0.00 0.00 35 1012.6
20260905024246 88 316 0.0 0.0 0.00 0.00 0.00 34 1012.5
20260905023741 88 316 0.0 0.0 0.00 0.00 0.00 34 1012.2
20260905023236 88 316 0.0 0.0 0.00 0.00 0.00 34 1011.9
20260905022735 88 317 0.0 0.0 0.00 0.00 0.00 34 1012.0
20260905022231 89 325 0.0 0.0 0.00 0.00 0.00 34 1011.9
20260905021725 89 325 0.0 0.0 0.00 0.00 0.00 34 1012.0
20260905021220 89 325 0.0 0.0 0.00 0.00 0.00 33 1012.0
20260905020715 89 325 0.0 0.0 0.00 0.00 0.00 33 1011.8
20260905020210 89 334 0.0 0.0 0.00 0.00 0.00 33 1012.0
20260905015709 90 339 0.0 0.0 0.00 0.00 0.00 32 1011.9
20260905015209 90 319 0.0 0.0 0.00 0.00 0.00 32 1011.9
20260905014707 90 11 0.0 0.0 0.00 0.00 0.00 32 1011.8
20260905014203 91 11 0.9 0.9 0.00 0.00 0.00 31 1011.8
20260905013659 91 3 0.9 0.9 0.00 0.00 0.00 30 1011.6
20260905013154 91 28 0.0 0.0 0.00 0.00 0.00 30 1011.6
20260905012650 92 18 0.9 0.0 0.00 0.00 0.00 30 1011.8
20260905012146 92 305 0.9 0.9 0.00 0.00 0.00 29 1011.8
20260905011642 92 329 0.9 1.7 0.00 0.00 0.00 29 1011.8
20260905011138 93 265 1.7 1.7 0.00 0.00 0.00 28 1011.6
20260905010632 93 335 0.9 1.7 0.00 0.00 0.00 29 1011.5
20260905010128 94 14 0.9 0.9 0.00 0.00 0.00 29 1011.6
20260905005624 95 359 1.7 1.7 0.00 0.00 0.00 29 1011.4
20260905005120 95 355 2.6 4.3 0.00 0.00 0.00 28 1011.8
20260905004619 95 286 1.7 1.7 0.00 0.00 0.00 28 1011.4
20260905004114 95 277 1.7 1.7 0.00 0.00 0.00 29 1011.4
20260905003610 96 285 2.6 7.0 0.00 0.00 0.00 29 1011.5
20260905003106 95 309 0.9 0.9 0.00 0.00 0.00 29 1011.6
20260905002601 96 342 1.7 1.7 0.00 0.00 0.00 29 1011.3
20260905002056 96 14 1.7 2.6 0.00 0.00 0.00 29 1011.3
20260905001551 95 338 0.0 0.0 0.00 0.00 0.00 31 1011.3
20260905001050 95 57 0.9 0.9 0.00 0.00 0.00 30 1011.3
20260905000546 94 312 0.9 0.9 0.00 0.00 0.00 32 1011.2
20260905000042 95 332 0.9 0.9 0.00 0.00 0.00 32 1011.3
20260904235537 96 23 1.7 1.7 0.00 0.00 0.00 30 1011.3
20260904235036 96 317 0.9 1.7 0.00 0.00 0.00 30 1011.2
20260904234536 96 356 1.7 1.7 0.00 0.00 0.00 30 1011.4
20260904234033 96 265 2.6 2.6 0.00 0.00 0.00 30 1011.3
20260904233527 96 27 0.9 0.9 0.00 0.00 0.00 29 1011.5
20260904233024 96 53 0.9 0.9 0.00 0.00 0.00 30 1011.3
20260904232520 97 334 0.9 0.9 0.00 0.00 0.00 29 1011.3
20260904232016 96 324 2.6 4.3 0.00 0.00 0.00 28 1011.5
20260904231512 97 333 2.6 4.3 0.00 0.00 0.00 28 1011.5
20260904231006 98 320 3.5 4.3 0.00 0.00 0.00 27 1011.4
20260904230505 98 342 2.6 6.1 0.00 0.00 0.00 27 1011.7
20260904230001 98 234 4.3 5.2 0.00 0.00 0.00 27 1011.4
20260904225459 98 317 5.2 7.8 0.00 0.00 0.00 26 1011.5
20260904224952 98 303 1.7 2.6 0.00 0.00 0.00 28 1011.6
20260904224448 97 250 2.6 2.6 0.00 0.00 0.00 28 1011.5
20260904223948 98 277 3.5 5.2 0.00 0.00 0.00 27 1011.7
20260904223447 98 346 3.5 4.3 0.00 0.00 0.00 28 1011.8
20260904222943 98 281 2.6 2.6 0.00 0.00 0.00 29 1011.6
20260904222439 98 305 2.6 4.3 0.00 0.00 0.00 29 1011.9
20260904221938 98 287 0.9 0.9 0.00 0.00 0.00 30 1011.4
20260904221433 98 333 1.7 0.9 0.00 0.00 0.00 29 1011.8
20260904220929 97 309 1.7 1.7 0.00 0.00 0.00 31 1011.9
20260904220428 97 284 0.9 0.9 0.00 0.00 0.00 32 1012.0
20260904215923 97 258 4.3 5.2 0.00 0.00 0.00 30 1011.9
20260904215418 97 256 4.3 7.0 0.00 0.00 0.00 31 1012.0
20260904214914 97 300 2.6 2.6 0.00 0.00 0.00 32 1012.0
20260904214410 96 318 3.5 6.1 0.00 0.00 0.00 32 1012.2
20260904213909 96 286 3.5 4.3 0.00 0.00 0.00 33 1012.5
20260904213403 96 275 0.9 0.9 0.00 0.00 0.00 33 1012.2
20260904212859 98 265 0.9 1.7 0.00 0.00 0.00 31 1012.5
20260904212358 98 259 1.7 1.7 0.00 0.00 0.00 30 1012.0
20260904211854 98 197 0.9 1.7 0.00 0.00 0.00 30 1012.4
20260904211349 98 266 2.6 2.6 0.00 0.00 0.00 32 1012.4
20260904210844 98 284 1.7 1.7 0.00 0.00 0.00 29 1012.5
20260904210344 97 336 1.7 1.7 0.00 0.00 0.00 31 1012.6
20260904205840 97 267 2.6 2.6 0.00 0.00 0.00 29 1012.4
20260904205335 97 320 1.7 1.7 0.00 0.00 0.00 31 1012.7
20260904204832 95 298 1.7 1.7 0.00 0.00 0.00 31 1012.5
20260904204328 95 56 2.6 2.6 0.00 0.00 0.00 32 1012.5
20260904203824 96 311 1.7 1.7 0.00 0.00 0.00 32 1012.6
20260904203320 96 6 2.6 4.3 0.00 0.00 0.00 31 1013.0
20260904202815 96 358 3.5 4.3 0.00 0.00 0.00 30 1013.1
20260904202311 96 163 0.0 0.0 0.00 0.00 0.00 30 1013.0
20260904201807 96 63 1.7 1.7 0.00 0.00 0.00 32 1013.3
20260904201301 96 292 4.3 5.2 0.00 0.00 0.00 31 1013.2
20260904200756 95 317 0.9 0.9 0.00 0.00 0.00 30 1013.2
20260904200250 95 53 2.6 2.6 0.00 0.00 0.00 32 1013.4
20260904195749 95 314 2.6 4.3 0.00 0.00 0.00 33 1013.5
20260904195248 94 78 0.0 0.0 0.00 0.00 0.00 36 1013.3
20260904194743 94 1 1.7 1.7 0.00 0.00 0.00 36 1013.8
20260904194242 93 234 2.6 2.6 0.00 0.00 0.00 37 1013.5
20260904193738 94 221 1.7 2.6 0.00 0.00 0.00 37 1013.8
20260904193233 94 227 0.9 0.9 0.00 0.00 0.00 37 1013.9
20260904192728 93 97 0.0 0.0 0.00 0.00 0.00 37 1013.5
20260904192224 93 158 0.9 1.7 0.00 0.00 0.00 38 1014.1
20260904191720 93 240 4.3 6.1 0.00 0.00 0.00 38 1014.0
20260904191216 94 30 0.9 0.9 0.00 0.00 0.00 37 1014.2
20260904190713 94 252 3.5 4.3 0.00 0.00 0.00 37 1014.4
20260904190208 93 273 1.7 1.7 0.00 0.00 0.00 38 1014.6
20260904185705 92 138 0.9 0.9 0.00 0.00 0.00 40 1014.3
20260904185159 92 216 2.6 4.3 0.00 0.00 0.00 40 1014.3
20260904184658 92 179 0.9 0.9 0.00 0.00 0.00 40 1014.7
20260904184154 92 208 4.3 5.2 0.00 0.00 0.00 40 1014.4
20260904183650 93 198 3.5 5.2 0.00 0.00 0.00 40 1014.6
20260904183149 92 156 0.9 1.7 0.00 0.00 0.00 43 1014.8
20260904182645 92 229 1.7 1.7 0.00 0.00 0.00 42 1014.9
20260904182139 92 199 2.6 4.3 0.00 0.00 0.00 42 1014.7
20260904181635 91 190 0.0 0.9 0.00 0.00 0.00 44 1014.7
20260904181130 91 124 0.0 0.0 0.00 0.00 0.00 43 1014.8
20260904180625 91 87 0.9 0.9 0.00 0.00 0.00 44 1014.9
20260904180120 91 301 2.6 2.6 0.00 0.00 0.00 44 1014.9
20260904175619 91 136 0.0 0.0 0.00 0.00 0.00 45 1015.2
20260904175118 91 159 1.7 1.7 0.00 0.00 0.00 45 1015.3
20260904174613 90 169 0.0 0.0 0.00 0.00 0.00 47 1015.2
20260904174109 89 226 2.6 1.7 0.00 0.00 0.00 46 1015.4
20260904173609 89 246 1.7 2.6 0.00 0.00 0.00 47 1015.4
20260904173105 89 263 3.5 4.3 0.00 0.00 0.00 47 1015.5
20260904172601 89 125 0.9 0.9 0.00 0.00 0.00 47 1015.6
20260904172100 89 238 1.7 1.7 0.00 0.00 0.00 47 1015.8
20260904171555 88 321 2.6 4.3 0.00 0.00 0.00 49 1015.5
20260904171051 88 100 1.7 1.7 0.00 0.00 0.00 49 1015.8
20260904170546 89 197 0.9 0.9 0.00 0.00 0.00 48 1015.8
20260904170043 89 200 2.6 2.6 0.00 0.00 0.00 49 1015.7
20260904165541 89 181 5.2 6.1 0.00 0.00 0.00 48 1015.6
20260904165040 88 254 3.5 4.3 0.00 0.00 0.00 49 1015.4
20260904164536 89 119 2.6 1.7 0.00 0.00 0.00 49 1015.6
20260904164032 88 127 0.9 1.7 0.00 0.00 0.00 50 1015.4
20260904163531 87 89 0.9 0.9 0.00 0.00 0.00 54 1015.4
20260904163026 87 210 3.5 4.3 0.00 0.00 0.00 52 1015.6
20260904162521 87 196 4.3 6.1 0.00 0.00 0.00 52 1015.6
20260904162016 86 215 2.6 1.7 0.00 0.00 0.00 53 1015.5
20260904161511 86 225 0.9 0.9 0.00 0.00 0.00 55 1015.5
20260904161007 85 165 0.9 0.9 0.00 0.00 0.00 56 1015.6
20260904160501 85 138 1.7 2.6 0.00 0.00 0.00 55 1015.5
20260904155956 85 87 0.0 0.0 0.00 0.00 0.00 55 1015.6
20260904155451 85 186 0.0 0.9 0.00 0.00 0.00 55 1015.5
20260904154949 84 94 0.9 0.9 0.00 0.00 0.00 58 1015.6
20260904154444 83 241 0.0 0.0 0.00 0.00 0.00 60 1015.5
20260904153939 83 235 2.6 1.7 0.00 0.00 0.00 58 1015.7
20260904153434 84 167 0.9 0.9 0.00 0.00 0.00 58 1015.4
20260904152931 84 180 1.7 2.6 0.00 0.00 0.00 57 1015.4
20260904152426 85 210 0.9 1.7 0.00 0.00 0.00 56 1015.7
20260904151925 84 157 2.6 2.6 0.00 0.00 0.00 56 1015.4
20260904151421 84 259 0.9 0.9 0.00 0.00 0.00 57 1015.4
20260904150915 84 243 2.6 2.6 0.00 0.00 0.00 57 1015.3
20260904150410 84 178 0.9 1.7 0.00 0.00 0.00 58 1015.4
20260904145908 84 161 0.9 0.9 0.00 0.00 0.00 57 1015.3
20260904145404 83 125 0.0 0.0 0.00 0.00 0.00 58 1015.4
20260904144900 84 189 1.7 1.7 0.00 0.00 0.00 58 1015.4
20260904144355 84 102 0.0 0.0 0.00 0.00 0.00 58 1015.4
20260904143851 84 102 0.9 0.9 0.00 0.00 0.00 58 1015.2
20260904143348 84 102 1.7 1.7 0.00 0.00 0.00 58 1015.2
20260904142843 83 108 0.0 0.0 0.00 0.00 0.00 60 1015.5
20260904142339 82 108 0.0 0.0 0.00 0.00 0.00 60 1015.2
20260904141833 82 110 0.0 0.0 0.00 0.00 0.00 60 1015.2
20260904141329 81 111 0.0 0.0 0.00 0.00 0.00 62 1015.2
20260904140825 80 114 0.0 0.0 0.00 0.00 0.00 64 1014.9
20260904140320 79 114 0.0 0.0 0.00 0.00 0.00 66 1015.2
20260904135819 78 121 0.0 0.0 0.00 0.00 0.00 67 1015.0
20260904135314 78 122 0.0 0.0 0.00 0.00 0.00 67 1015.0
20260904134810 77 128 0.0 0.0 0.00 0.00 0.00 69 1014.7
20260904134310 77 128 0.0 0.0 0.00 0.00 0.00 69 1014.8
20260904133804 77 128 0.9 0.9 0.00 0.00 0.00 69 1014.6
20260904133300 77 132 0.0 0.0 0.00 0.00 0.00 69 1014.4
20260904132800 77 185 0.9 0.9 0.00 0.00 0.00 70 1014.5
20260904132255 76 144 0.9 0.9 0.00 0.00 0.00 70 1014.5
20260904131754 76 133 0.9 0.9 0.00 0.00 0.00 70 1014.4
20260904131250 77 133 0.0 0.0 0.00 0.00 0.00 70 1014.3
20260904130750 77 126 0.0 0.0 0.00 0.00 0.00 69 1014.1
20260904130249 77 169 0.9 0.9 0.00 0.00 0.00 69 1014.0
20260904125746 77 172 0.9 0.9 0.00 0.00 0.00 69 1014.1
20260904125241 77 183 0.9 0.9 0.00 0.00 0.00 69 1013.8
20260904124740 77 177 0.9 0.9 0.00 0.00 0.00 69 1013.6
20260904124237 77 147 0.0 0.0 0.00 0.00 0.00 69 1013.5
20260904123732 77 180 0.9 0.9 0.00 0.00 0.00 69 1013.8
20260904123227 77 205 0.9 0.9 0.00 0.00 0.00 69 1013.5
20260904122722 77 191 0.9 0.9 0.00 0.00 0.00 70 1013.5
20260904122216 77 183 0.0 0.0 0.00 0.00 0.00 72 1013.2
20260904121712 77 183 0.0 0.0 0.00 0.00 0.00 72 1013.4
20260904121207 77 183 0.0 0.0 0.00 0.00 0.00 71 1013.4
20260904120703 77 183 0.0 0.0 0.00 0.00 0.00 71 1013.4
20260904120159 77 184 0.0 0.0 0.00 0.00 0.00 70 1013.3
20260904115655 77 184 0.0 0.0 0.00 0.00 0.00 69 1013.3
20260904115149 77 184 0.0 0.0 0.00 0.00 0.00 69 1013.2
20260904114644 77 184 0.0 0.0 0.00 0.00 0.00 69 1013.3
20260904114143 77 184 0.0 0.0 0.00 0.00 0.00 68 1013.3
20260904113638 78 184 0.0 0.0 0.00 0.00 0.00 68 1013.3
20260904113137 78 184 0.0 0.0 0.00 0.00 0.00 67 1013.2
20260904112633 79 184 0.0 0.0 0.00 0.00 0.00 66 1013.3
20260904112129 79 184 0.9 0.9 0.00 0.00 0.00 65 1013.3
20260904111624 79 181 0.0 0.0 0.00 0.00 0.00 65 1013.3
20260904111119 79 178 0.9 0.0 0.00 0.00 0.00 65 1013.3
20260904110615 79 136 0.9 0.9 0.00 0.00 0.00 67 1013.3
20260904110115 79 136 0.0 0.0 0.00 0.00 0.00 67 1013.4
20260904105615 79 136 0.0 0.0 0.00 0.00 0.00 67 1013.4
20260904105109 79 91 0.0 0.0 0.00 0.00 0.00 67 1013.4
20260904104605 79 91 0.0 0.0 0.00 0.00 0.00 67 1013.4
20260904104100 79 91 0.0 0.0 0.00 0.00 0.00 67 1013.4
20260904103556 79 91 0.0 0.0 0.00 0.00 0.00 67 1013.6
20260904103052 79 91 0.0 0.0 0.00 0.00 0.00 67 1013.3
20260904102548 79 91 0.0 0.0 0.00 0.00 0.00 67 1013.4
20260904102043 78 103 0.9 0.9 0.00 0.00 0.00 68 1013.2
20260904101539 78 103 0.0 0.0 0.00 0.00 0.00 68 1013.5
20260904101034 78 103 0.0 0.0 0.00 0.00 0.00 68 1013.3
20260904100530 78 103 0.0 0.0 0.00 0.00 0.00 68 1013.3
20260904100025 78 103 0.0 0.0 0.00 0.00 0.00 68 1013.3
20260904095520 78 103 0.0 0.0 0.00 0.00 0.00 67 1013.2
20260904095015 78 103 0.0 0.0 0.00 0.00 0.00 67 1013.4
20260904094510 78 103 0.9 0.9 0.00 0.00 0.00 67 1013.3
20260904094005 78 105 0.0 0.0 0.00 0.00 0.00 66 1013.2
20260904093502 79 105 0.0 0.0 0.00 0.00 0.00 66 1013.2
20260904092956 79 107 0.0 0.0 0.00 0.00 0.00 65 1013.2
20260904092453 79 105 0.9 0.9 0.00 0.00 0.00 66 1013.2
20260904091949 78 92 0.0 0.0 0.00 0.00 0.00 66 1013.1
20260904091445 78 85 0.0 0.0 0.00 0.00 0.00 67 1013.1
20260904090944 78 85 0.0 0.0 0.00 0.00 0.00 66 1013.3
20260904090440 78 85 0.9 0.9 0.00 0.00 0.00 66 1013.1
20260904085935 79 84 0.0 0.0 0.00 0.00 0.00 66 1013.4
20260904085430 79 86 0.9 0.9 0.00 0.00 0.00 66 1013.2
20260904084925 78 87 0.9 0.9 0.00 0.00 0.00 66 1013.1
20260904084421 79 91 0.0 0.0 0.00 0.00 0.00 66 1013.2
20260904083916 78 120 0.9 0.9 0.00 0.00 0.00 67 1013.1
20260904083413 78 126 0.0 0.0 0.00 0.00 0.00 67 1013.2
20260904082909 79 126 0.0 0.0 0.00 0.00 0.00 67 1013.3
20260904082408 78 126 0.0 0.0 0.00 0.00 0.00 66 1013.2
20260904081904 79 126 0.0 0.0 0.00 0.00 0.00 66 1013.3
20260904081359 79 126 0.0 0.0 0.00 0.00 0.00 66 1013.3
20260904080855 79 126 0.0 0.0 0.00 0.00 0.00 65 1013.3
20260904080350 79 126 0.0 0.0 0.00 0.00 0.00 65 1013.4
20260904075846 79 126 0.0 0.0 0.00 0.00 0.00 66 1013.3
20260904075342 79 126 0.0 0.0 0.00 0.00 0.00 66 1013.4
20260904074840 79 126 0.0 0.0 0.00 0.00 0.00 66 1013.3
20260904074335 79 125 0.0 0.0 0.00 0.00 0.00 65 1013.3
20260904073831 79 125 0.0 0.0 0.00 0.00 0.00 65 1013.3
20260904073326 79 126 0.0 0.0 0.00 0.00 0.00 65 1013.3
20260904072822 79 126 0.0 0.0 0.00 0.00 0.00 65 1013.2
20260904072321 80 126 0.0 0.0 0.00 0.00 0.00 64 1013.2